Location: Ferintosh
(52.7647°N, 112.9692°W)
Time: 18:58:32
(UTC+00:00)

Explorer 7 - Pass Details

Date: 28 May 2024
Orbit: 466 x 622 km, 50.3° (Epoch: 16 June)

Event Time Altitude Azimuth Distance (km) Brightness Sun altitude
Rises 07:16:12 0° 267° (W) 2,546 10.2 -15.6°
Reaches altitude 10° 07:18:20 10° 264° (W) 1,684 9.3 -15.6°
Maximum altitude 07:22:06 60° 184° (S) 587 6.6 -15.7°
Drops below altitude 10° 07:26:02 10° 105° (ESE) 1,768 9.2 -15.7°
Sets 07:28:20 0° 102° (ESE) 2,687 10.2 -15.7°
